Simultaneous Nadir Overpasses (SNOs) Predictions

Prediction of SNOs between METOP-B and TERRA Satellite Orbit:

Table of predicted SNOs for the next 14.0 days since TLE Epoch: 7/24/2021
Index Date (METOP-B) Time (METOP-B) Lat,Lon (METOP-B) SZA (METOP-B ) Date (TERRA) Time (TERRA) Lat,Lon (TERRA) SZA (TERRA ) Distance(km) Time Diff (sec)
1 07/26/2021 00:44:32 81.26,-146.07 64.32 07/26/2021 00:45:19 81.26,-146.15 64.34 1.57 47
2 07/26/2021 01:35:12 -81.26, 21.58 115.63 07/26/2021 01:34:46 -81.26, 21.39 115.67 3.25 26
3 07/28/2021 20:18:55 81.26, -79.64 64.97 07/28/2021 20:19:32 81.26, -79.78 64.97 2.27 37
4 07/28/2021 21:09:36 -81.26, 87.62 115.04 07/28/2021 21:08:59 -81.25, 87.79 115.04 3.00 37
5 07/31/2021 15:53:18 81.25, -13.63 65.60 07/31/2021 15:53:44 81.25, -13.44 65.64 3.25 26
6 07/31/2021 16:43:57 -81.26, 154.41 114.31 07/31/2021 16:43:10 -81.27, 154.53 114.31 2.29 47
7 08/03/2021 11:27:41 81.25, 52.75 66.32 08/03/2021 11:27:57 81.24, 52.86 66.34 1.92 16
8 08/03/2021 12:18:20 -81.26,-139.21 113.59 08/03/2021 12:17:23 -81.27,-139.15 113.60 1.11 57
9 08/06/2021 07:02:03 81.26, 119.49 67.13 08/06/2021 07:02:09 81.26, 119.49 67.13 0.09 6



Historial Predications of SNOs between METOP-B and TERRA
